| time (UTC) | temp F | wind direction | speed MPH | gust MPH | rain 1hr in | rain 24hr in | rain mn in | humidity % | barometer mb |
| 20260508152707 | 62 | 244 | 7.0 | 13.0 | 0.00 | 0.00 | 0.00 | 35 | 1009.2 |
| 20260508152207 | 61 | 267 | 3.0 | 12.0 | 0.00 | 0.00 | 0.00 | 36 | 1009.3 |
| 20260508151709 | 61 | 167 | 3.0 | 12.0 | 0.00 | 0.00 | 0.00 | 36 | 1009.3 |
| 20260508151208 | 60 | 209 | 3.0 | 12.0 | 0.00 | 0.00 | 0.00 | 36 | 1009.2 |
| 20260508150207 | 59 | 234 | 2.0 | 3.0 | 0.00 | 0.00 | 0.00 | 37 | 1009.2 |
| 20260508145207 | 59 | 14 | 2.0 | 7.0 | 0.00 | 0.00 | 0.00 | 38 | 1009.3 |
| 20260508144707 | 59 | 254 | 3.0 | 7.0 | 0.00 | 0.00 | 0.00 | 38 | 1009.3 |
| 20260508144207 | 59 | 235 | 3.0 | 12.0 | 0.00 | 0.00 | 0.00 | 40 | 1009.4 |
| 20260508143707 | 58 | 305 | 3.0 | 12.0 | 0.00 | 0.00 | 0.00 | 39 | 1009.4 |
| 20260508143207 | 59 | 245 | 4.0 | 12.0 | 0.00 | 0.00 | 0.00 | 39 | 1009.4 |
| 20260508142708 | 59 | 313 | 5.0 | 12.0 | 0.00 | 0.00 | 0.00 | 38 | 1009.4 |
| 20260508142207 | 59 | 263 | 4.0 | 12.0 | 0.00 | 0.00 | 0.00 | 38 | 1009.6 |
| 20260508141707 | 58 | 260 | 3.0 | 9.0 | 0.00 | 0.00 | 0.00 | 41 | 1009.4 |
| 20260508141207 | 58 | 290 | 2.0 | 8.0 | 0.00 | 0.00 | 0.00 | 42 | 1009.5 |
| 20260508140707 | 58 | 191 | 3.0 | 7.0 | 0.00 | 0.00 | 0.00 | 44 | 1009.6 |
| 20260508140207 | 58 | 277 | 3.0 | 9.0 | 0.00 | 0.00 | 0.00 | 45 | 1009.6 |
| 20260508135707 | 57 | 236 | 4.0 | 9.0 | 0.00 | 0.00 | 0.00 | 48 | 1009.6 |
| 20260508135207 | 57 | 234 | 3.0 | 12.0 | 0.00 | 0.00 | 0.00 | 50 | 1009.8 |
| 20260508134707 | 57 | 255 | 5.0 | 12.0 | 0.00 | 0.00 | 0.00 | 49 | 1009.8 |
| 20260508134207 | 56 | 272 | 3.0 | 12.0 | 0.00 | 0.00 | 0.00 | 51 | 1009.7 |
| 20260508133707 | 56 | 296 | 6.0 | 12.0 | 0.00 | 0.00 | 0.00 | 50 | 1009.7 |
| 20260508133207 | 56 | 273 | 2.0 | 9.0 | 0.00 | 0.00 | 0.00 | 51 | 1009.8 |
| 20260508132207 | 55 | 244 | 3.0 | 10.0 | 0.00 | 0.00 | 0.00 | 52 | 1009.8 |
| 20260508131707 | 56 | 251 | 3.0 | 10.0 | 0.00 | 0.00 | 0.00 | 52 | 1009.8 |
| 20260508131207 | 56 | 232 | 3.0 | 9.0 | 0.00 | 0.00 | 0.00 | 54 | 1009.8 |
| 20260508130207 | 55 | 235 | 3.0 | 8.0 | 0.00 | 0.00 | 0.00 | 56 | 1009.7 |
| 20260508125707 | 54 | 257 | 2.0 | 8.0 | 0.00 | 0.00 | 0.00 | 56 | 1009.6 |
| 20260508124707 | 54 | 288 | 2.0 | 9.0 | 0.00 | 0.00 | 0.00 | 58 | 1009.6 |
| 20260508124207 | 53 | 260 | 5.0 | 9.0 | 0.00 | 0.00 | 0.00 | 58 | 1009.6 |
| 20260508123706 | 53 | 201 | 3.0 | 8.0 | 0.00 | 0.00 | 0.00 | 59 | 1009.5 |
| 20260508122707 | 53 | 299 | 2.0 | 10.0 | 0.00 | 0.00 | 0.00 | 62 | 1009.8 |
| 20260508122208 | 52 | 227 | 5.0 | 10.0 | 0.00 | 0.00 | 0.00 | 63 | 1009.9 |
| 20260508121207 | 52 | 221 | 2.0 | 9.0 | 0.00 | 0.00 | 0.00 | 65 | 1009.9 |
| 20260508120707 | 51 | 228 | 5.0 | 10.0 | 0.00 | 0.00 | 0.00 | 66 | 1009.9 |
| 20260508120207 | 51 | 254 | 5.0 | 10.0 | 0.00 | 0.00 | 0.00 | 66 | 1009.9 |
| 20260508115706 | 51 | 253 | 3.0 | 9.0 | 0.00 | 0.00 | 0.00 | 68 | 1009.9 |
| 20260508115206 | 50 | 260 | 2.0 | 8.0 | 0.00 | 0.00 | 0.00 | 69 | 1009.8 |
| 20260508114706 | 50 | 269 | 2.0 | 3.0 | 0.00 | 0.00 | 0.00 | 70 | 1009.8 |
| 20260508114207 | 50 | 254 | 2.0 | 7.0 | 0.00 | 0.00 | 0.00 | 71 | 1009.7 |
| 20260508113207 | 50 | 259 | 2.0 | 5.0 | 0.00 | 0.00 | 0.00 | 71 | 1009.6 |
| 20260508112708 | 49 | 256 | 2.0 | 8.0 | 0.00 | 0.00 | 0.00 | 71 | 1009.7 |
| 20260508111706 | 49 | 250 | 3.0 | 8.0 | 0.00 | 0.00 | 0.00 | 71 | 1009.6 |
| 20260508110707 | 49 | 272 | 3.0 | 8.0 | 0.00 | 0.00 | 0.00 | 71 | 1009.5 |
| 20260508110207 | 49 | 252 | 1.0 | 6.0 | 0.00 | 0.00 | 0.00 | 72 | 1009.5 |
| 20260508104707 | 48 | 254 | 1.0 | 3.0 | 0.00 | 0.00 | 0.00 | 73 | 1009.3 |
| 20260508104206 | 48 | 245 | 1.0 | 3.0 | 0.00 | 0.00 | 0.00 | 73 | 1009.2 |
| 20260508103207 | 48 | 267 | 0.0 | 3.0 | 0.00 | 0.00 | 0.00 | 73 | 1009.0 |
| 20260508102706 | 48 | 279 | 1.0 | 3.0 | 0.00 | 0.00 | 0.00 | 73 | 1009.0 |
| 20260508102206 | 48 | 275 | 1.0 | 3.0 | 0.00 | 0.00 | 0.00 | 73 | 1009.0 |
| 20260508101707 | 48 | 248 | 2.0 | 3.0 | 0.00 | 0.00 | 0.00 | 73 | 1008.9 |
| 20260508101207 | 48 | 237 | 0.0 | 2.0 | 0.00 | 0.00 | 0.00 | 73 | 1008.8 |
| 20260508100707 | 48 | 299 | 0.0 | 3.0 | 0.00 | 0.00 | 0.00 | 73 | 1008.8 |
| 20260508100206 | 48 | 298 | 1.0 | 7.0 | 0.00 | 0.00 | 0.00 | 73 | 1008.9 |
| 20260508095206 | 48 | 279 | 3.0 | 7.0 | 0.00 | 0.00 | 0.00 | 72 | 1008.8 |
| 20260508094707 | 49 | 277 | 2.0 | 7.0 | 0.00 | 0.00 | 0.00 | 72 | 1008.8 |
| 20260508094206 | 49 | 321 | 3.0 | 7.0 | 0.00 | 0.00 | 0.00 | 72 | 1008.7 |
| 20260508093707 | 49 | 311 | 2.0 | 7.0 | 0.00 | 0.00 | 0.00 | 72 | 1008.7 |
| 20260508093206 | 49 | 297 | 3.0 | 8.0 | 0.00 | 0.00 | 0.00 | 72 | 1008.5 |
| 20260508092706 | 49 | 307 | 2.0 | 8.0 | 0.00 | 0.00 | 0.00 | 72 | 1008.5 |
| 20260508092207 | 49 | 325 | 2.0 | 8.0 | 0.00 | 0.00 | 0.00 | 72 | 1008.5 |
| 20260508091707 | 49 | 286 | 3.0 | 7.0 | 0.00 | 0.00 | 0.00 | 71 | 1008.4 |
| 20260508091206 | 49 | 311 | 1.0 | 5.0 | 0.00 | 0.00 | 0.00 | 71 | 1008.3 |
| 20260508090707 | 49 | 0 | 2.0 | 3.0 | 0.00 | 0.00 | 0.00 | 71 | 1008.1 |
| 20260508090208 | 49 | 71 | 1.0 | 3.0 | 0.00 | 0.00 | 0.00 | 71 | 1007.9 |
| 20260508085706 | 49 | 5 | 2.0 | 6.0 | 0.00 | 0.00 | 0.00 | 71 | 1007.9 |
| 20260508085206 | 49 | 259 | 2.0 | 6.0 | 0.00 | 0.00 | 0.00 | 71 | 1008.2 |
| 20260508084707 | 49 | 301 | 2.0 | 5.0 | 0.00 | 0.00 | 0.00 | 71 | 1008.3 |
| 20260508084206 | 49 | 296 | 3.0 | 8.0 | 0.00 | 0.00 | 0.00 | 71 | 1008.3 |
| 20260508083707 | 49 | 321 | 2.0 | 8.0 | 0.00 | 0.01 | 0.00 | 71 | 1008.3 |
| 20260508083208 | 49 | 328 | 3.0 | 10.0 | 0.00 | 0.01 | 0.00 | 70 | 1008.3 |
| 20260508082707 | 49 | 314 | 2.0 | 10.0 | 0.00 | 0.01 | 0.00 | 70 | 1008.3 |
| 20260508082206 | 49 | 29 | 4.0 | 10.0 | 0.00 | 0.01 | 0.00 | 70 | 1008.2 |
| 20260508081708 | 49 | 311 | 3.0 | 12.0 | 0.00 | 0.01 | 0.00 | 70 | 1008.2 |
| 20260508081208 | 49 | 329 | 6.0 | 12.0 | 0.00 | 0.01 | 0.00 | 69 | 1008.3 |
| 20260508080707 | 49 | 63 | 5.0 | 12.0 | 0.00 | 0.01 | 0.00 | 69 | 1008.1 |
| 20260508080206 | 49 | 316 | 4.0 | 12.0 | 0.00 | 0.01 | 0.00 | 68 | 1008.2 |
| 20260508075706 | 49 | 334 | 5.0 | 12.0 | 0.00 | 0.02 | 0.00 | 67 | 1008.0 |
| 20260508075206 | 49 | 350 | 5.0 | 13.0 | 0.00 | 0.02 | 0.00 | 67 | 1007.9 |
| 20260508074707 | 50 | 344 | 6.0 | 13.0 | 0.00 | 0.02 | 0.00 | 66 | 1007.8 |
| 20260508074207 | 50 | 335 | 4.0 | 13.0 | 0.00 | 0.02 | 0.00 | 65 | 1007.7 |
| 20260508073706 | 50 | 351 | 5.0 | 12.0 | 0.00 | 0.02 | 0.00 | 65 | 1007.6 |
| 20260508072707 | 51 | 5 | 5.0 | 12.0 | 0.00 | 0.02 | 0.00 | 63 | 1007.7 |
| 20260508071206 | 51 | 320 | 4.0 | 10.0 | 0.00 | 0.04 | 0.00 | 59 | 1007.7 |
| 20260508070706 | 51 | 318 | 3.0 | 10.0 | 0.00 | 0.04 | 0.00 | 58 | 1007.6 |
| 20260508070206 | 51 | 33 | 6.0 | 13.0 | 0.00 | 0.04 | 0.00 | 58 | 1007.5 |
| 20260508065707 | 51 | 18 | 5.0 | 13.0 | 0.00 | 0.05 | 0.00 | 59 | 1007.7 |
| 20260508065207 | 52 | 28 | 6.0 | 14.0 | 0.00 | 0.05 | 0.00 | 59 | 1007.8 |
| 20260508064707 | 52 | 318 | 5.0 | 14.0 | 0.00 | 0.05 | 0.00 | 59 | 1007.9 |
| 20260508064206 | 52 | 294 | 5.0 | 12.0 | 0.00 | 0.06 | 0.00 | 58 | 1008.0 |
| 20260508063706 | 52 | 274 | 5.0 | 14.0 | 0.00 | 0.06 | 0.00 | 57 | 1008.1 |
| 20260508063207 | 52 | 15 | 5.0 | 16.0 | 0.00 | 0.06 | 0.00 | 59 | 1008.1 |
| 20260508062206 | 53 | 350 | 7.0 | 15.0 | 0.00 | 0.09 | 0.00 | 56 | 1008.0 |
| 20260508061706 | 54 | 331 | 7.0 | 13.0 | 0.00 | 0.10 | 0.00 | 56 | 1007.9 |
| 20260508061208 | 55 | 324 | 7.0 | 13.0 | 0.00 | 0.11 | 0.00 | 52 | 1007.7 |
| 20260508060706 | 56 | 5 | 7.0 | 13.0 | 0.00 | 0.11 | 0.00 | 50 | 1007.4 |
| 20260508060207 | 56 | 340 | 3.0 | 8.0 | 0.00 | 0.11 | 0.00 | 58 | 1007.2 |
| 20260508055706 | 56 | 260 | 0.0 | 3.0 | 0.00 | 0.12 | 0.00 | 62 | 1006.9 |
| 20260508055207 | 56 | 248 | 1.0 | 5.0 | 0.00 | 0.13 | 0.00 | 64 | 1006.8 |
| 20260508054707 | 56 | 187 | 2.0 | 5.0 | 0.00 | 0.13 | 0.00 | 64 | 1006.3 |
| 20260508054206 | 56 | 178 | 2.0 | 7.0 | 0.00 | 0.13 | 0.00 | 62 | 1006.0 |
| 20260508053706 | 56 | 141 | 1.0 | 7.0 | 0.00 | 0.13 | 0.00 | 60 | 1005.8 |
| 20260508053206 | 56 | 85 | 2.0 | 6.0 | 0.00 | 0.13 | 0.00 | 54 | 1005.8 |
| 20260508052706 | 56 | 123 | 2.0 | 3.0 | 0.00 | 0.13 | 0.00 | 49 | 1005.8 |
| 20260508052206 | 56 | 284 | 1.0 | 3.0 | 0.00 | 0.13 | 0.00 | 47 | 1005.8 |
| 20260508051706 | 56 | 12 | 1.0 | 5.0 | 0.00 | 0.13 | 0.00 | 47 | 1005.8 |
| 20260508051206 | 57 | 330 | 2.0 | 5.0 | 0.00 | 0.13 | 0.00 | 47 | 1005.7 |
| 20260508050706 | 57 | 327 | 2.0 | 5.0 | 0.00 | 0.13 | 0.00 | 50 | 1005.7 |
| 20260508045207 | 57 | 27 | 0.0 | 0.0 | 0.00 | 0.13 | 0.00 | 48 | 1005.8 |
| 20260508044706 | 57 | 27 | 0.0 | 3.0 | 0.00 | 0.13 | 0.00 | 47 | 1005.7 |
| 20260508044206 | 57 | 28 | 0.0 | 3.0 | 0.00 | 0.13 | 0.00 | 46 | 1005.7 |
| 20260508043706 | 57 | 22 | 2.0 | 3.0 | 0.00 | 0.13 | 0.00 | 47 | 1005.6 |
| 20260508043207 | 57 | 5 | 1.0 | 3.0 | 0.00 | 0.13 | 0.00 | 47 | 1005.6 |
| 20260508042207 | 57 | 95 | 0.0 | 2.0 | 0.00 | 0.13 | 0.00 | 48 | 1005.6 |
| 20260508041707 | 57 | 52 | 0.0 | 2.0 | 0.00 | 0.13 | 0.00 | 45 | 1005.7 |
| 20260508041207 | 57 | 9 | 0.0 | 2.0 | 0.00 | 0.13 | 0.00 | 39 | 1005.6 |
| 20260508040707 | 57 | 9 | 0.0 | 3.0 | 0.00 | 0.13 | 0.00 | 39 | 1005.4 |
| 20260508040207 | 57 | 0 | 1.0 | 3.0 | 0.00 | 0.13 | 0.00 | 40 | 1005.3 |
| 20260508035207 | 57 | 22 | 1.0 | 3.0 | 0.00 | 0.13 | 0.13 | 40 | 1005.6 |
| 20260508034707 | 57 | 26 | 0.0 | 2.0 | 0.00 | 0.13 | 0.13 | 40 | 1005.6 |
| 20260508034207 | 57 | 29 | 1.0 | 2.0 | 0.00 | 0.13 | 0.13 | 40 | 1005.8 |
| 20260508032706 | 57 | 40 | 0.0 | 2.0 | 0.00 | 0.13 | 0.13 | 39 | 1005.9 |
| 20260508032207 | 57 | 40 | 1.0 | 3.0 | 0.00 | 0.13 | 0.13 | 40 | 1005.9 |
| 20260508031707 | 58 | 40 | 1.0 | 3.0 | 0.00 | 0.13 | 0.13 | 42 | 1005.9 |
| 20260508031207 | 58 | 28 | 0.0 | 2.0 | 0.00 | 0.13 | 0.13 | 47 | 1005.8 |
| 20260508030706 | 58 | 29 | 0.0 | 2.0 | 0.00 | 0.13 | 0.13 | 49 | 1005.8 |
| 20260508030207 | 58 | 27 | 1.0 | 3.0 | 0.00 | 0.13 | 0.13 | 47 | 1005.9 |
| 20260508025207 | 58 | 40 | 2.0 | 7.0 | 0.00 | 0.13 | 0.13 | 42 | 1005.8 |
| 20260508024207 | 59 | 66 | 2.0 | 5.0 | 0.00 | 0.13 | 0.13 | 38 | 1005.8 |
| 20260508023706 | 59 | 19 | 3.0 | 7.0 | 0.00 | 0.13 | 0.13 | 38 | 1005.8 |
| 20260508023207 | 59 | 353 | 3.0 | 7.0 | 0.00 | 0.13 | 0.13 | 38 | 1005.8 |
| 20260508022708 | 59 | 11 | 2.0 | 6.0 | 0.00 | 0.13 | 0.13 | 39 | 1005.8 |
| 20260508021707 | 59 | 27 | 3.0 | 6.0 | 0.00 | 0.13 | 0.13 | 38 | 1005.7 |
| 20260508021207 | 59 | 333 | 3.0 | 5.0 | 0.00 | 0.13 | 0.13 | 37 | 1005.7 |
| 20260508020706 | 60 | 355 | 3.0 | 6.0 | 0.00 | 0.15 | 0.13 | 36 | 1005.6 |
| 20260508020208 | 60 | 5 | 2.0 | 6.0 | 0.00 | 0.18 | 0.13 | 36 | 1005.5 |
| 20260508015206 | 60 | 5 | 2.0 | 5.0 | 0.00 | 0.22 | 0.13 | 35 | 1005.5 |
| 20260508014707 | 60 | 336 | 2.0 | 5.0 | 0.00 | 0.31 | 0.13 | 35 | 1005.5 |
| 20260508013706 | 60 | 40 | 3.0 | 6.0 | 0.00 | 0.35 | 0.13 | 34 | 1005.5 |
| 20260508013208 | 60 | 5 | 2.0 | 6.0 | 0.00 | 0.37 | 0.13 | 34 | 1005.6 |
| 20260508012706 | 60 | 311 | 2.0 | 6.0 | 0.00 | 0.39 | 0.13 | 34 | 1005.7 |
| 20260508012206 | 60 | 0 | 3.0 | 6.0 | 0.00 | 0.39 | 0.13 | 34 | 1005.6 |
| 20260508011706 | 60 | 327 | 3.0 | 6.0 | 0.00 | 0.39 | 0.13 | 34 | 1005.6 |
| 20260508011207 | 60 | 296 | 1.0 | 5.0 | 0.00 | 0.39 | 0.13 | 34 | 1005.5 |
| 20260508010707 | 61 | 323 | 1.0 | 5.0 | 0.00 | 0.39 | 0.13 | 34 | 1005.5 |
| 20260508010207 | 61 | 5 | 1.0 | 5.0 | 0.00 | 0.39 | 0.13 | 33 | 1005.3 |
| 20260508005706 | 61 | 302 | 2.0 | 6.0 | 0.00 | 0.39 | 0.13 | 33 | 1005.4 |
| 20260508005206 | 61 | 338 | 2.0 | 6.0 | 0.00 | 0.39 | 0.13 | 33 | 1005.2 |
| 20260508004707 | 61 | 330 | 3.0 | 8.0 | 0.00 | 0.39 | 0.13 | 33 | 1005.3 |
| 20260508004208 | 61 | 17 | 3.0 | 8.0 | 0.00 | 0.39 | 0.13 | 33 | 1005.2 |
| 20260508003706 | 61 | 313 | 3.0 | 8.0 | 0.00 | 0.39 | 0.13 | 34 | 1005.1 |
| 20260508003206 | 61 | 345 | 3.0 | 8.0 | 0.00 | 0.39 | 0.13 | 33 | 1005.2 |
| 20260508002206 | 61 | 5 | 3.0 | 8.0 | 0.00 | 0.39 | 0.13 | 33 | 1004.8 |
| 20260508001706 | 61 | 348 | 1.0 | 8.0 | 0.00 | 0.39 | 0.13 | 33 | 1004.8 |
| 20260508000706 | 62 | 5 | 2.0 | 5.0 | 0.00 | 0.39 | 0.13 | 33 | 1004.7 |
| 20260508000206 | 62 | 33 | 2.0 | 9.0 | 0.00 | 0.39 | 0.13 | 32 | 1004.7 |
| 20260507235706 | 62 | 286 | 3.0 | 10.0 | 0.00 | 0.39 | 0.13 | 31 | 1004.6 |
| 20260507234706 | 62 | 34 | 3.0 | 9.0 | 0.00 | 0.39 | 0.13 | 32 | 1004.6 |
| 20260507234207 | 62 | 310 | 4.0 | 9.0 | 0.00 | 0.39 | 0.13 | 31 | 1004.6 |
| 20260507233706 | 62 | 356 | 4.0 | 9.0 | 0.00 | 0.39 | 0.13 | 31 | 1004.4 |
| 20260507232706 | 63 | 350 | 4.0 | 10.0 | 0.00 | 0.39 | 0.13 | 31 | 1004.3 |
| 20260507232206 | 63 | 15 | 4.0 | 10.0 | 0.00 | 0.39 | 0.13 | 30 | 1004.4 |
| 20260507231706 | 63 | 338 | 2.0 | 9.0 | 0.00 | 0.39 | 0.13 | 30 | 1004.3 |
| 20260507231207 | 63 | 30 | 3.0 | 8.0 | 0.00 | 0.39 | 0.13 | 30 | 1004.4 |
| 20260507230707 | 63 | 316 | 5.0 | 12.0 | 0.00 | 0.39 | 0.13 | 30 | 1004.4 |
| 20260507225706 | 63 | 338 | 5.0 | 12.0 | 0.00 | 0.39 | 0.13 | 30 | 1004.4 |
| 20260507224706 | 64 | 336 | 5.0 | 10.0 | 0.00 | 0.39 | 0.13 | 30 | 1004.2 |
| 20260507224207 | 64 | 17 | 5.0 | 10.0 | 0.00 | 0.39 | 0.13 | 29 | 1004.2 |
| 20260507223707 | 64 | 307 | 3.0 | 12.0 | 0.00 | 0.39 | 0.13 | 30 | 1004.2 |
| 20260507223206 | 64 | 40 | 3.0 | 12.0 | 0.00 | 0.39 | 0.13 | 29 | 1004.2 |
| 20260507222707 | 64 | 319 | 4.0 | 13.0 | 0.00 | 0.39 | 0.13 | 29 | 1004.2 |
| 20260507221706 | 65 | 314 | 4.0 | 12.0 | 0.00 | 0.39 | 0.13 | 29 | 1004.0 |
| 20260507221206 | 65 | 284 | 3.0 | 12.0 | 0.00 | 0.39 | 0.13 | 29 | 1004.2 |
| 20260507220706 | 65 | 283 | 5.0 | 12.0 | 0.00 | 0.39 | 0.13 | 28 | 1004.2 |
| 20260507220206 | 66 | 219 | 4.0 | 12.0 | 0.00 | 0.39 | 0.13 | 28 | 1004.2 |
| 20260507215706 | 66 | 247 | 2.0 | 10.0 | 0.00 | 0.39 | 0.13 | 28 | 1004.1 |
| 20260507215206 | 65 | 309 | 3.0 | 12.0 | 0.00 | 0.39 | 0.13 | 29 | 1004.1 |
| 20260507214706 | 65 | 282 | 3.0 | 12.0 | 0.00 | 0.39 | 0.13 | 28 | 1004.1 |
| 20260507214206 | 65 | 285 | 3.0 | 12.0 | 0.00 | 0.39 | 0.13 | 29 | 1004.2 |
| 20260507213206 | 65 | 302 | 6.0 | 14.0 | 0.00 | 0.39 | 0.13 | 28 | 1004.1 |
| 20260507212706 | 65 | 243 | 3.0 | 14.0 | 0.00 | 0.39 | 0.13 | 29 | 1004.0 |
| 20260507211706 | 64 | 287 | 5.0 | 13.0 | 0.00 | 0.39 | 0.13 | 29 | 1004.0 |
| 20260507210707 | 64 | 324 | 4.0 | 8.0 | 0.00 | 0.39 | 0.13 | 30 | 1003.9 |
| 20260507210206 | 65 | 317 | 3.0 | 10.0 | 0.00 | 0.39 | 0.13 | 30 | 1003.8 |
| 20260507205706 | 64 | 290 | 4.0 | 10.0 | 0.00 | 0.39 | 0.13 | 30 | 1003.9 |
| 20260507205206 | 64 | 307 | 3.0 | 13.0 | 0.00 | 0.39 | 0.13 | 30 | 1003.9 |
| 20260507203706 | 66 | 296 | 5.0 | 9.0 | 0.00 | 0.39 | 0.13 | 29 | 1004.0 |
| 20260507202706 | 65 | 310 | 3.0 | 12.0 | 0.00 | 0.39 | 0.13 | 29 | 1004.0 |
| 20260507202206 | 65 | 261 | 5.0 | 13.0 | 0.00 | 0.39 | 0.13 | 29 | 1004.0 |
| 20260507200706 | 66 | 127 | 5.0 | 12.0 | 0.00 | 0.39 | 0.13 | 29 | 1004.0 |
| 20260507200207 | 65 | 311 | 5.0 | 12.0 | 0.00 | 0.39 | 0.13 | 29 | 1004.0 |
| 20260507194706 | 66 | 320 | 6.0 | 14.0 | 0.00 | 0.39 | 0.13 | 28 | 1004.2 |
| 20260507194207 | 65 | 347 | 4.0 | 14.0 | 0.00 | 0.39 | 0.13 | 29 | 1004.1 |
| 20260507193206 | 66 | 266 | 6.0 | 14.0 | 0.00 | 0.39 | 0.13 | 29 | 1004.4 |
| 20260507192206 | 65 | 334 | 3.0 | 14.0 | 0.00 | 0.39 | 0.13 | 29 | 1004.3 |
| 20260507191706 | 65 | 231 | 6.0 | 14.0 | 0.00 | 0.39 | 0.13 | 28 | 1004.4 |
| 20260507190706 | 64 | 294 | 3.0 | 12.0 | 0.00 | 0.39 | 0.13 | 29 | 1004.4 |
| 20260507190206 | 65 | 329 | 7.0 | 12.0 | 0.00 | 0.39 | 0.13 | 28 | 1004.5 |
| 20260507185206 | 64 | 263 | 3.0 | 14.0 | 0.00 | 0.39 | 0.13 | 29 | 1004.7 |
| 20260507184706 | 64 | 347 | 7.0 | 14.0 | 0.00 | 0.39 | 0.13 | 29 | 1004.7 |
| 20260507184206 | 64 | 19 | 8.0 | 14.0 | 0.00 | 0.39 | 0.13 | 28 | 1004.9 |
| 20260507183706 | 65 | 331 | 5.0 | 12.0 | 0.00 | 0.39 | 0.13 | 29 | 1004.8 |
| 20260507183206 | 65 | 262 | 5.0 | 12.0 | 0.00 | 0.39 | 0.13 | 31 | 1004.8 |
| 20260507182705 | 65 | 266 | 4.0 | 12.0 | 0.00 | 0.39 | 0.13 | 29 | 1004.8 |
| 20260507182206 | 64 | 291 | 3.0 | 12.0 | 0.00 | 0.39 | 0.13 | 30 | 1004.9 |
| 20260507181205 | 64 | 331 | 2.0 | 12.0 | 0.00 | 0.39 | 0.13 | 30 | 1005.0 |
| 20260507180705 | 64 | 235 | 6.0 | 12.0 | 0.00 | 0.39 | 0.13 | 30 | 1005.1 |
| 20260507175706 | 64 | 345 | 5.0 | 14.0 | 0.00 | 0.39 | 0.13 | 29 | 1005.3 |
| 20260507175206 | 65 | 285 | 5.0 | 14.0 | 0.00 | 0.40 | 0.13 | 29 | 1005.3 |
| 20260507174705 | 64 | 327 | 2.0 | 12.0 | 0.00 | 0.40 | 0.13 | 28 | 1005.4 |
| 20260507174206 | 64 | 278 | 4.0 | 15.0 | 0.00 | 0.40 | 0.13 | 29 | 1005.4 |
| 20260507173706 | 63 | 317 | 6.0 | 15.0 | 0.00 | 0.40 | 0.13 | 29 | 1005.4 |
| 20260507173206 | 64 | 326 | 6.0 | 12.0 | 0.00 | 0.40 | 0.13 | 29 | 1005.4 |
| 20260507172206 | 63 | 253 | 3.0 | 9.0 | 0.00 | 0.40 | 0.13 | 30 | 1005.6 |
| 20260507171706 | 62 | 4 | 3.0 | 12.0 | 0.00 | 0.40 | 0.13 | 30 | 1005.6 |
| 20260507171206 | 62 | 293 | 5.0 | 16.0 | 0.00 | 0.40 | 0.13 | 30 | 1005.9 |
| 20260507170706 | 63 | 334 | 8.0 | 16.0 | 0.00 | 0.40 | 0.13 | 29 | 1005.9 |
| 20260507170206 | 63 | 349 | 5.0 | 14.0 | 0.00 | 0.40 | 0.13 | 30 | 1005.9 |
| 20260507165706 | 63 | 334 | 5.0 | 14.0 | 0.00 | 0.40 | 0.13 | 29 | 1006.1 |
| 20260507165205 | 63 | 321 | 5.0 | 12.0 | 0.00 | 0.41 | 0.13 | 29 | 1006.0 |
| 20260507164706 | 62 | 282 | 4.0 | 12.0 | 0.00 | 0.41 | 0.13 | 30 | 1006.2 |
| 20260507164206 | 63 | 254 | 5.0 | 12.0 | 0.00 | 0.41 | 0.13 | 29 | 1006.2 |
| 20260507163705 | 63 | 299 | 3.0 | 12.0 | 0.00 | 0.41 | 0.13 | 31 | 1006.1 |
| 20260507163206 | 63 | 300 | 5.0 | 14.0 | 0.00 | 0.41 | 0.13 | 29 | 1006.2 |
| 20260507162705 | 62 | 331 | 5.0 | 14.0 | 0.00 | 0.41 | 0.13 | 30 | 1006.3 |
| 20260507162205 | 62 | 0 | 5.0 | 12.0 | 0.00 | 0.41 | 0.13 | 31 | 1006.3 |
| 20260507161706 | 61 | 344 | 6.0 | 12.0 | 0.00 | 0.41 | 0.13 | 30 | 1006.6 |
| 20260507161206 | 62 | 312 | 5.0 | 12.0 | 0.00 | 0.41 | 0.13 | 30 | 1006.8 |
| 20260507160706 | 62 | 267 | 6.0 | 12.0 | 0.00 | 0.41 | 0.13 | 30 | 1006.9 |
| 20260507160206 | 61 | 12 | 2.0 | 14.0 | 0.00 | 0.41 | 0.13 | 32 | 1007.0 |
| 20260507155706 | 61 | 301 | 6.0 | 14.0 | 0.00 | 0.41 | 0.13 | 30 | 1007.0 |
| 20260507155206 | 61 | 304 | 7.0 | 15.0 | 0.00 | 0.41 | 0.13 | 31 | 1007.1 |
| 20260507154706 | 61 | 343 | 8.0 | 15.0 | 0.00 | 0.41 | 0.13 | 31 | 1007.1 |
| 20260507154206 | 61 | 316 | 6.0 | 15.0 | 0.00 | 0.41 | 0.13 | 32 | 1007.2 |
| 20260507153706 | 61 | 324 | 5.0 | 15.0 | 0.00 | 0.41 | 0.13 | 32 | 1007.3 |